,,,PA_Meas_PMT16A,,PR_Meas_QMR101_102,,RH_Meas_QMH101,,SR_Meas_QMS101,,TA_Meas_QMH101,,GenWind,,GenWind,
date,time,status,PA,status,PR,status,RH,status,SR,status,TA,status,DirAvg,status,SpdAvg,
2012-07-22, 07:05:04,VALID,1004.72,VALID,0,VALID,86.214,VALID,220.074,VALID,26.2719,VALID,4,VALID,0.111719,
2012-07-22, 07:06:04,VALID,1004.74,VALID,0,VALID,85.9317,VALID,231.322,VALID,26.4317,VALID,1,VALID,0.206641,
2012-07-22, 07:07:04,VALID,1004.76,VALID,0,VALID,85.3595,VALID,232.708,VALID,26.5076,VALID,358,VALID,0.227344,
2012-07-22, 07:08:04,VALID,1004.79,VALID,0,VALID,83.9253,VALID,216.325,VALID,26.605,VALID,328,VALID,0.633984,
2012-07-22, 07:09:04,VALID,1004.82,VALID,0,VALID,83.5668,VALID,198.23,VALID,26.683,VALID,357,VALID,0.474609,
2012-07-22, 07:10:04,VALID,1004.87,VALID,0,VALID,82.9946,VALID,197.007,VALID,26.7024,VALID,352,VALID,1.41172,
2012-07-22, 07:11:04,VALID,1004.88,VALID,0,VALID,83.254,VALID,189.753,VALID,26.607,VALID,347,VALID,1.3668,
2012-07-22, 07:12:04,VALID,1004.9,VALID,0,VALID,84.9705,VALID,188.856,VALID,26.5076,VALID,348,VALID,0.746094,
2012-07-22, 07:13:04,VALID,1004.93,VALID,0,VALID,84.0703,VALID,192.524,VALID,26.4492,VALID,347,VALID,1.24609,
2012-07-22, 07:14:04,VALID,1004.98,VALID,0,VALID,84.6729,VALID,198.963,VALID,26.3927,VALID,353,VALID,0.884766,
2012-07-22, 07:15:04,VALID,1004.96,VALID,0,VALID,86.0385,VALID,207.359,VALID,26.3518,VALID,339,VALID,0.859375,
2012-07-22, 07:16:04,VALID,1004.97,VALID,0,VALID,86.8014,VALID,211.679,VALID,26.3927,VALID,358,VALID,0.571094,
2012-07-22, 07:17:04,VALID,1005,VALID,0,VALID,85.6952,VALID,214.939,VALID,26.4122,VALID,352,VALID,0.618359,
2012-07-22, 07:18:04,VALID,1005,VALID,0,VALID,85.2909,VALID,221.134,VALID,26.3713,VALID,354,VALID,0.607422,
2012-07-22, 07:19:04,VALID,1005,VALID,0,VALID,85.9317,VALID,229.448,VALID,26.4492,VALID,352,VALID,0.263672,
2012-07-22, 07:20:04,VALID,1005.02,VALID,0,VALID,85.1612,VALID,224.557,VALID,26.5271,VALID,345,VALID,0.794531,
2012-07-22, 07:21:04,VALID,1005.02,VALID,0,VALID,84.5509,VALID,214.45,VALID,26.5661,VALID,321,VALID,0.958203,
2012-07-22, 07:22:04,VALID,1005,VALID,0,VALID,84.4746,VALID,218.525,VALID,26.605,VALID,345,VALID,0.90625,
2012-07-22, 07:23:04,VALID,1004.98,VALID,0,VALID,84.3373,VALID,229.529,VALID,26.6245,VALID,350,VALID,0.638672,
2012-07-22, 07:24:04,VALID,1004.97,VALID,0,VALID,84.7492,VALID,240.044,VALID,26.683,VALID,351,VALID,0.530469,
2012-07-22, 07:25:04,VALID,1004.98,VALID,0,VALID,84.6882,VALID,245.994,VALID,26.7219,VALID,354,VALID,0.540234,
2012-07-22, 07:26:04,VALID,1004.92,VALID,0,VALID,84.4899,VALID,249.417,VALID,26.7804,VALID,358,VALID,0.494531,
2012-07-22, 07:27:04,VALID,1004.93,VALID,0,VALID,84.3678,VALID,289.846,VALID,26.8583,VALID,356,VALID,0.334375,
2012-07-22, 07:28:04,VALID,1004.95,VALID,0,VALID,83.7804,VALID,323.998,VALID,26.9557,VALID,356,VALID,0.470313,
2012-07-22, 07:29:04,VALID,1004.95,VALID,0,VALID,84.5204,VALID,358.558,VALID,27.0726,VALID,355,VALID,0.0863281,
2012-07-22, 07:30:04,VALID,1004.95,VALID,0,VALID,83.727,VALID,367.605,VALID,27.1895,VALID,356,VALID,0.788672,
2012-07-22, 07:31:04,VALID,1004.99,VALID,0,VALID,83.1701,VALID,307.696,VALID,27.3064,VALID,347,VALID,0.448047,
2012-07-22, 07:32:04,VALID,1005,VALID,0,VALID,83.2845,VALID,262.296,VALID,27.4059,VALID,294,VALID,0.172656,
2012-07-22, 07:33:04,VALID,1005.01,VALID,0,VALID,82.0791,VALID,212.168,VALID,27.4818,VALID,325,VALID,0.501172,
2012-07-22, 07:34:04,VALID,1005.01,VALID,0,VALID,81.095,VALID,163.262,VALID,27.5403,VALID,325,VALID,0.441797,
2012-07-22, 07:35:04,VALID,1005.05,VALID,0,VALID,82.5979,VALID,122.589,VALID,27.4818,VALID,354,VALID,0.647266,
2012-07-22, 07:38:04,VALID,1005.14,VALID,0,VALID,83.7575,VALID,117.454,VALID,27.4059,VALID,287,VALID,0.304688,
2012-07-22, 07:54:04,VALID,1005.38,VALID,0,VALID,87.1294,VALID,141.173,VALID,25.1229,VALID,316,VALID,2.37969,
2012-07-22, 07:55:04,VALID,1005.42,VALID,0,VALID,87.4041,VALID,146.472,VALID,25.1053,VALID,294,VALID,2.7125,
2012-07-22, 07:56:04,VALID,1005.38,VALID,0,VALID,87.3888,VALID,148.509,VALID,25.0663,VALID,271,VALID,1.94961,
2012-07-22, 07:57:04,VALID,1005.4,VALID,0,VALID,86.748,VALID,158.046,VALID,25.0469,VALID,293,VALID,2.82422,
2012-07-22, 07:58:04,VALID,1005.46,VALID,0,VALID,87.0532,VALID,164.648,VALID,25.0469,VALID,281,VALID,2.34141,
2012-07-22, 07:59:04,VALID,1005.43,VALID,0,VALID,86.9158,VALID,163.425,VALID,25.0663,VALID,260,VALID,1.71289,
2012-07-22, 08:00:04,VALID,1005.51,VALID,0,VALID,86.6641,VALID,163.67,VALID,25.0663,VALID,304,VALID,1.51367,
2012-07-22, 08:01:04,VALID,1005.46,VALID,0,VALID,86.9616,VALID,166.197,VALID,25.0858,VALID,292,VALID,0.816406,
2012-07-22, 08:02:04,VALID,1005.48,VALID,0,VALID,86.5268,VALID,179.89,VALID,25.1248,VALID,286,VALID,1.27031,
2012-07-22, 08:03:04,VALID,1005.46,VALID,0,VALID,86.214,VALID,202.876,VALID,25.1637,VALID,292,VALID,1.19727,
2012-07-22, 08:04:04,VALID,1005.5,VALID,0,VALID,86.8777,VALID,228.959,VALID,25.2416,VALID,317,VALID,1.04336,
2012-07-22, 08:05:04,VALID,1005.5,VALID,0,VALID,86.3742,VALID,254.389,VALID,25.2806,VALID,273,VALID,2.025,
2012-07-22, 08:06:04,VALID,1005.45,VALID,0,VALID,85.8554,VALID,272.81,VALID,25.3,VALID,304,VALID,1.90703,
2012-07-22, 08:07:04,VALID,1005.5,VALID,0,VALID,85.5579,VALID,284.303,VALID,25.2592,VALID,295,VALID,2.84375,
2012-07-22, 08:08:04,VALID,1005.48,VALID,0,VALID,87.7398,VALID,296.203,VALID,25.339,VALID,318,VALID,0.74375,
2012-07-22, 08:09:04,VALID,1005.48,VALID,0,VALID,85.9165,VALID,289.194,VALID,25.3974,VALID,313,VALID,2.19414,
2012-07-22, 08:10:04,VALID,1005.52,VALID,0,VALID,87.2973,VALID,277.293,VALID,25.4558,VALID,335,VALID,0.514453,
2012-07-22, 08:11:04,VALID,1005.54,VALID,0,VALID,86.5802,VALID,263.192,VALID,25.5123,VALID,286,VALID,1.27539,
2012-07-22, 08:12:04,VALID,1005.55,VALID,0,VALID,84.6653,VALID,251.129,VALID,25.5727,VALID,289,VALID,3.37734,
2012-07-22, 08:13:04,VALID,1005.57,VALID,0,VALID,85.8478,VALID,242.081,VALID,25.5532,VALID,284,VALID,1.44258,
2012-07-22, 08:14:04,VALID,1005.56,VALID,0,VALID,85.001,VALID,235.968,VALID,25.5123,VALID,300,VALID,1.53867,
2012-07-22, 08:15:04,VALID,1005.56,VALID,0,VALID,85.2604,VALID,233.849,VALID,25.5123,VALID,279,VALID,1.75937,
2012-07-22, 08:16:04,VALID,1005.56,VALID,0,VALID,84.1771,VALID,237.354,VALID,25.4753,VALID,305,VALID,3.03672,
2012-07-22, 08:17:04,VALID,1005.55,VALID,0,VALID,85.6571,VALID,242.408,VALID,25.4753,VALID,288,VALID,0.771484,
2012-07-22, 08:18:04,VALID,1005.51,VALID,0,VALID,84.8408,VALID,247.624,VALID,25.4948,VALID,282,VALID,1.51836,
2012-07-22, 08:19:04,VALID,1005.51,VALID,0,VALID,85.6571,VALID,253.737,VALID,25.5123,VALID,303,VALID,1.24727,
2012-07-22, 08:20:04,VALID,1005.51,VALID,0,VALID,85.0696,VALID,259.443,VALID,25.5727,VALID,292,VALID,2.16055,
2012-07-22, 08:21:04,VALID,1005.52,VALID,0,VALID,85.1459,VALID,267.675,VALID,25.6116,VALID,232,VALID,0.551172,
2012-07-22, 08:22:04,VALID,1005.48,VALID,0,VALID,83.3379,VALID,278.923,VALID,25.6292,VALID,279,VALID,1.93633,
2012-07-22, 08:23:04,VALID,1005.48,VALID,0,VALID,83.2997,VALID,286.83,VALID,25.67,VALID,308,VALID,2.19023,
2012-07-22, 08:24:04,VALID,1005.48,VALID,0,VALID,82.7123,VALID,306.066,VALID,25.67,VALID,279,VALID,1.46953,
2012-07-22, 08:25:04,VALID,1005.5,VALID,0,VALID,82.514,VALID,333.045,VALID,25.7285,VALID,294,VALID,2.17969,
2012-07-22, 08:26:04,VALID,1005.47,VALID,0,VALID,82.7962,VALID,347.146,VALID,25.7674,VALID,277,VALID,1.73984,
2012-07-22, 08:27:04,VALID,1005.47,VALID,0,VALID,83.4752,VALID,334.268,VALID,25.8239,VALID,264,VALID,0.973828,
2012-07-22, 08:28:04,VALID,1005.47,VALID,0,VALID,82.8115,VALID,337.039,VALID,25.9427,VALID,268,VALID,1.36719,
2012-07-22, 08:29:04,VALID,1005.46,VALID,0,VALID,83.2616,VALID,332.149,VALID,26.0401,VALID,244,VALID,0.966016,
2012-07-22, 08:30:04,VALID,1005.43,VALID,0,VALID,82.6894,VALID,338.099,VALID,26.118,VALID,297,VALID,1.03437,
2012-07-22, 08:31:04,VALID,1005.43,VALID,0,VALID,82.0181,VALID,338.67,VALID,26.155,VALID,296,VALID,1.21914,
2012-07-22, 08:32:04,VALID,1005.43,VALID,0,VALID,83.4065,VALID,322.449,VALID,26.2739,VALID,349,VALID,0.411719,
2012-07-22, 08:33:04,VALID,1005.4,VALID,0,VALID,80.6754,VALID,317.233,VALID,26.3518,VALID,282,VALID,2.11133,
2012-07-22, 08:34:04,VALID,1005.42,VALID,0,VALID,80.3397,VALID,310.223,VALID,26.3907,VALID,254,VALID,1.91445,
2012-07-22, 08:35:04,VALID,1005.44,VALID,0,VALID,81.507,VALID,302.969,VALID,26.4317,VALID,277,VALID,0.870313,
2012-07-22, 08:36:04,VALID,1005.39,VALID,0,VALID,80.088,VALID,299.79,VALID,26.4297,VALID,287,VALID,2.28242,
2012-07-22, 08:37:04,VALID,1005.41,VALID,0,VALID,81.0797,VALID,297.997,VALID,26.3887,VALID,274,VALID,1.67891,
2012-07-22, 08:38:04,VALID,1005.43,VALID,0,VALID,81.3467,VALID,294.247,VALID,26.4687,VALID,284,VALID,1.12148,
2012-07-22, 08:39:04,VALID,1005.43,VALID,0,VALID,80.9653,VALID,283.977,VALID,26.5076,VALID,269,VALID,1.26289,
2012-07-22, 08:40:04,VALID,1005.42,VALID,0,VALID,80.4084,VALID,269.876,VALID,26.5291,VALID,321,VALID,1.8832,
2012-07-22, 08:41:04,VALID,1005.41,VALID,0,VALID,80.6907,VALID,258.546,VALID,26.5271,VALID,275,VALID,1.56914,
2012-07-22, 08:42:04,VALID,1005.41,VALID,0,VALID,80.6449,VALID,259.035,VALID,26.5661,VALID,312,VALID,0.795703,
2012-07-22, 08:43:04,VALID,1005.41,VALID,0,VALID,81.5298,VALID,273.299,VALID,26.6265,VALID,291,VALID,0.754687,
2012-07-22, 08:44:04,VALID,1005.44,VALID,0,VALID,79.1039,VALID,329.051,VALID,26.5855,VALID,290,VALID,2.43203,
2012-07-22, 08:45:04,VALID,1005.42,VALID,0,VALID,79.6074,VALID,391.161,VALID,26.5855,VALID,270,VALID,2.09258,
2012-07-22, 08:46:04,VALID,1005.46,VALID,0,VALID,79.1725,VALID,464.845,VALID,26.5855,VALID,297,VALID,0.672266,
2012-07-22, 08:47:04,VALID,1005.48,VALID,0,VALID,78.2494,VALID,445.446,VALID,26.7629,VALID,278,VALID,1.26484,
2012-07-22, 08:48:04,VALID,1005.45,VALID,0,VALID,77.4637,VALID,308.022,VALID,26.8583,VALID,254,VALID,1.93906,
2012-07-22, 08:49:04,VALID,1005.43,VALID,0,VALID,77.7307,VALID,271.832,VALID,26.8973,VALID,285,VALID,0.985547,
2012-07-22, 08:50:04,VALID,1005.47,VALID,0,VALID,76.7084,VALID,265.801,VALID,26.9578,VALID,302,VALID,1.35,
2012-07-22, 08:51:04,VALID,1005.5,VALID,0,VALID,77.929,VALID,279.82,VALID,26.9383,VALID,302,VALID,0.898047,
2012-07-22, 08:52:04,VALID,1005.52,VALID,0,VALID,77.1661,VALID,292.046,VALID,26.9167,VALID,266,VALID,1.13281,
2012-07-22, 08:53:04,VALID,1005.52,VALID,0,VALID,76.6931,VALID,299.301,VALID,26.9362,VALID,291,VALID,1.54453,
2012-07-22, 08:54:04,VALID,1005.51,VALID,0,VALID,77.2424,VALID,309.897,VALID,26.9383,VALID,256,VALID,0.723047,
2012-07-22, 08:55:04,VALID,1005.47,VALID,0,VALID,77.1204,VALID,370.621,VALID,26.9557,VALID,214,VALID,0.933203,
2012-07-22, 08:56:04,VALID,1005.47,VALID,0,VALID,77.9748,VALID,332.067,VALID,27.0162,VALID,266,VALID,1.42188,
2012-07-22, 08:57:04,VALID,1005.43,VALID,0,VALID,76.6474,VALID,340.544,VALID,27.0942,VALID,264,VALID,1.43438,
2012-07-22, 08:58:04,VALID,1005.42,VALID,0,VALID,75.7243,VALID,311.446,VALID,27.0921,VALID,235,VALID,1.29375,
2012-07-22, 08:59:04,VALID,1005.39,VALID,0,VALID,75.7166,VALID,306.392,VALID,27.0921,VALID,290,VALID,3.37969,
2012-07-22, 09:00:04,VALID,1005.38,VALID,0,VALID,76.327,VALID,372.659,VALID,26.9772,VALID,290,VALID,3.42695,
2012-07-22, 09:01:04,VALID,1005.35,VALID,0,VALID,76.6626,VALID,486.853,VALID,26.7998,VALID,296,VALID,3.64141,
2012-07-22, 09:02:04,VALID,1005.36,VALID,0,VALID,78.074,VALID,480.577,VALID,26.7998,VALID,295,VALID,1.68594,
2012-07-22, 09:03:04,VALID,1005.4,VALID,0,VALID,78.0587,VALID,425.966,VALID,26.8993,VALID,287,VALID,2.97148,
2012-07-22, 09:04:04,VALID,1005.41,VALID,0,VALID,78.7072,VALID,394.585,VALID,26.9147,VALID,265,VALID,1.62852,
2012-07-22, 09:05:04,VALID,1005.33,VALID,0,VALID,77.6849,VALID,315.766,VALID,27.0531,VALID,264,VALID,1.61016,
2012-07-22, 09:06:04,VALID,1005.37,VALID,0,VALID,76.9144,VALID,376.571,VALID,27.129,VALID,253,VALID,1.72461,
2012-07-22, 09:07:04,VALID,1005.35,VALID,0,VALID,77.1661,VALID,397.03,VALID,27.2285,VALID,291,VALID,2.41758,
2012-07-22, 09:08:04,VALID,1005.36,VALID,0,VALID,77.3111,VALID,283.08,VALID,27.209,VALID,356,VALID,1.56367,
2012-07-22, 09:09:04,VALID,1005.35,VALID,0,VALID,78.1121,VALID,274.033,VALID,27.2285,VALID,275,VALID,1.3793,
2012-07-22, 09:10:04,VALID,1005.35,VALID,0,VALID,77.8604,VALID,209.07,VALID,27.2675,VALID,259,VALID,1.03633,
2012-07-22, 09:11:04,VALID,1005.3,VALID,0,VALID,77.6773,VALID,190.486,VALID,27.2675,VALID,279,VALID,1.70547,
2012-07-22, 09:12:04,VALID,1005.26,VALID,0,VALID,78.3181,VALID,221.215,VALID,27.209,VALID,306,VALID,0.65,
2012-07-22, 09:13:04,VALID,1005.24,VALID,0,VALID,78.5317,VALID,255.286,VALID,27.129,VALID,271,VALID,2.64453,
2012-07-22, 09:14:04,VALID,1005.2,VALID,0,VALID,79.4472,VALID,335.898,VALID,27.0531,VALID,273,VALID,1.81172,
2012-07-22, 09:15:04,VALID,1005.16,VALID,0,VALID,79.7981,VALID,361.655,VALID,27.0142,VALID,297,VALID,1.05703,
2012-07-22, 09:16:04,VALID,1005.18,VALID,0,VALID,79.6303,VALID,368.176,VALID,27.0336,VALID,311,VALID,0.901172,
2012-07-22, 09:17:04,VALID,1005.17,VALID,0,VALID,78.6385,VALID,371.11,VALID,27.0921,VALID,286,VALID,1.45547,
2012-07-22, 09:18:04,VALID,1005.14,VALID,0,VALID,79.3251,VALID,367.605,VALID,27.17,VALID,282,VALID,0.923828,
2012-07-22, 09:19:04,VALID,1005.1,VALID,0,VALID,77.3263,VALID,351.955,VALID,27.2111,VALID,273,VALID,3.34727,
2012-07-22, 09:20:04,VALID,1005.04,VALID,0,VALID,77.3721,VALID,337.854,VALID,27.1895,VALID,293,VALID,1.74609,
2012-07-22, 09:21:04,VALID,1005.07,VALID,0,VALID,77.0822,VALID,323.509,VALID,27.17,VALID,288,VALID,3.14336,
2012-07-22, 09:22:04,VALID,1005.07,VALID,0,VALID,79.1191,VALID,309.489,VALID,27.1506,VALID,288,VALID,1.3543,
2012-07-22, 09:23:04,VALID,1005.08,VALID,0,VALID,77.8985,VALID,298.16,VALID,27.1895,VALID,291,VALID,2.44727,
2012-07-22, 09:24:04,VALID,1005.09,VALID,0,VALID,76.1667,VALID,289.357,VALID,27.1895,VALID,274,VALID,2.3543,
2012-07-22, 09:25:04,VALID,1005.11,VALID,0,VALID,78.0282,VALID,280.961,VALID,27.0921,VALID,298,VALID,1.08477,
2012-07-22, 09:26:04,VALID,1005.14,VALID,0,VALID,77.9061,VALID,273.381,VALID,27.0942,VALID,283,VALID,2.01406,
2012-07-22, 09:27:04,VALID,1005.19,VALID,0,VALID,78.1426,VALID,265.964,VALID,27.0336,VALID,298,VALID,1.92539,
2012-07-22, 09:28:04,VALID,1005.16,VALID,0,VALID,77.8985,VALID,258.791,VALID,26.9947,VALID,291,VALID,2.99414,
2012-07-22, 09:29:04,VALID,1005.17,VALID,0,VALID,78.0816,VALID,257.324,VALID,26.8778,VALID,260,VALID,3.06836,
2012-07-22, 09:30:04,VALID,1005.2,VALID,0,VALID,79.5463,VALID,251.292,VALID,26.8583,VALID,290,VALID,1.33125,
2012-07-22, 09:31:04,VALID,1005.19,VALID,0,VALID,78.4096,VALID,245.097,VALID,26.9167,VALID,263,VALID,1.58242,
2012-07-22, 09:32:04,VALID,1005.18,VALID,0,VALID,78.1426,VALID,244.934,VALID,26.9362,VALID,268,VALID,2.09844,
2012-07-22, 09:33:04,VALID,1005.19,VALID,0,VALID,78.8063,VALID,250.151,VALID,26.9147,VALID,294,VALID,1.33281,
2012-07-22, 09:34:04,VALID,1005.19,VALID,0,VALID,79.0352,VALID,243.712,VALID,26.9362,VALID,276,VALID,2.1293,
2012-07-22, 09:35:04,VALID,1005.14,VALID,0,VALID,78.4707,VALID,237.68,VALID,26.8973,VALID,296,VALID,4.11875,
2012-07-22, 09:36:04,VALID,1005.17,VALID,0,VALID,78.7377,VALID,244.853,VALID,26.8173,VALID,231,VALID,1.59336,
2012-07-22, 09:37:04,VALID,1005.15,VALID,0,VALID,79.4548,VALID,251.292,VALID,26.8583,VALID,261,VALID,1.39336,
2012-07-22, 09:38:04,VALID,1005.17,VALID,0,VALID,78.2494,VALID,253.574,VALID,26.7998,VALID,281,VALID,2.92188,
2012-07-22, 09:39:04,VALID,1005.16,VALID,0,VALID,78.6919,VALID,259.932,VALID,26.6809,VALID,290,VALID,3.22695,
2012-07-22, 09:40:04,VALID,1005.17,VALID,0,VALID,79.6684,VALID,264.985,VALID,26.5855,VALID,287,VALID,2.50312,
2012-07-22, 09:41:04,VALID,1005.17,VALID,0,VALID,80.0498,VALID,266.697,VALID,26.607,VALID,262,VALID,1.94141,
2012-07-22, 09:42:04,VALID,1005.21,VALID,0,VALID,79.9354,VALID,257.65,VALID,26.605,VALID,291,VALID,2.0293,
2012-07-22, 09:43:04,VALID,1005.25,VALID,0,VALID,80.0727,VALID,273.544,VALID,26.685,VALID,268,VALID,2.07656,
2012-07-22, 09:44:04,VALID,1005.19,VALID,0,VALID,80.5305,VALID,292.291,VALID,26.7024,VALID,274,VALID,1.22656,
2012-07-22, 09:45:04,VALID,1005.22,VALID,0,VALID,79.615,VALID,305.658,VALID,26.7219,VALID,281,VALID,1.46641,
2012-07-22, 09:46:04,VALID,1005.26,VALID,0,VALID,80.3321,VALID,340.789,VALID,26.7609,VALID,246,VALID,1.37539,
2012-07-22, 09:47:04,VALID,1005.29,VALID,0,VALID,80.1872,VALID,385.374,VALID,26.7998,VALID,297,VALID,1.52383,
2012-07-22, 09:48:04,VALID,1005.28,VALID,0,VALID,79.7065,VALID,420.178,VALID,26.9167,VALID,303,VALID,0.948438,
2012-07-22, 09:49:04,VALID,1005.25,VALID,0,VALID,78.8979,VALID,397.6,VALID,27.0726,VALID,272,VALID,1.54297,
2012-07-22, 09:50:04,VALID,1005.27,VALID,0,VALID,77.5171,VALID,406.159,VALID,27.17,VALID,287,VALID,3.4543,
2012-07-22, 09:51:04,VALID,1005.27,VALID,0,VALID,77.4637,VALID,399.557,VALID,27.1721,VALID,282,VALID,3.17539,
2012-07-22, 09:52:04,VALID,1005.28,VALID,0,VALID,79.2564,VALID,409.012,VALID,27.209,VALID,275,VALID,1.19922,
2012-07-22, 09:53:04,VALID,1005.25,VALID,0,VALID,77.9595,VALID,404.529,VALID,27.3649,VALID,250,VALID,0.761328,
2012-07-22, 09:54:04,VALID,1005.2,VALID,0,VALID,76.8762,VALID,379.261,VALID,27.4818,VALID,269,VALID,1.49922,
2012-07-22, 09:55:04,VALID,1005.17,VALID,0,VALID,75.4344,VALID,414.717,VALID,27.5577,VALID,275,VALID,1.44219,
2012-07-22, 09:56:04,VALID,1005.19,VALID,0,VALID,76.2125,VALID,418.304,VALID,27.6182,VALID,295,VALID,1.0207,
2012-07-22, 09:57:04,VALID,1005.16,VALID,0,VALID,73.4203,VALID,424.58,VALID,27.6788,VALID,290,VALID,3.89453,
2012-07-22, 09:58:04,VALID,1005.11,VALID,0,VALID,74.9461,VALID,432.079,VALID,27.5403,VALID,358,VALID,1.3125,
2012-07-22, 09:59:04,VALID,1005.09,VALID,0,VALID,74.9995,VALID,440.148,VALID,27.5598,VALID,282,VALID,1.95352,
2012-07-22, 10:00:04,VALID,1005.09,VALID,0,VALID,74.5036,VALID,445.772,VALID,27.5403,VALID,291,VALID,2.74688,
2012-07-22, 10:01:04,VALID,1005.07,VALID,0,VALID,75.1674,VALID,438.926,VALID,27.5013,VALID,286,VALID,3.34063,
2012-07-22, 10:02:04,VALID,1005.05,VALID,0,VALID,75.7472,VALID,432.894,VALID,27.5403,VALID,293,VALID,0.85625,
2012-07-22, 10:03:04,VALID,1005.05,VALID,0,VALID,75.2742,VALID,427.677,VALID,27.6572,VALID,257,VALID,1.20313,
2012-07-22, 10:04:04,VALID,1004.99,VALID,0,VALID,75.5107,VALID,415.043,VALID,27.7372,VALID,282,VALID,1.32734,
2012-07-22, 10:05:04,VALID,1004.92,VALID,0,VALID,75.3428,VALID,415.614,VALID,27.8326,VALID,316,VALID,1.43711,
2012-07-22, 10:06:04,VALID,1004.88,VALID,0,VALID,74.1756,VALID,405.751,VALID,27.8521,VALID,355,VALID,1.76367,
2012-07-22, 10:07:04,VALID,1004.88,VALID,0,VALID,73.5729,VALID,433.22,VALID,27.8542,VALID,325,VALID,1.87812,
2012-07-22, 10:08:04,VALID,1004.88,VALID,0,VALID,73.7713,VALID,485.141,VALID,27.8542,VALID,295,VALID,2.32617,
2012-07-22, 10:09:04,VALID,1004.87,VALID,0,VALID,73.4814,VALID,571.051,VALID,27.8737,VALID,287,VALID,3.82617,
2012-07-22, 10:10:04,VALID,1004.89,VALID,0,VALID,74.8317,VALID,569.421,VALID,27.8347,VALID,247,VALID,1.94414,
2012-07-22, 10:11:04,VALID,1004.87,VALID,0,VALID,73.8247,VALID,454.575,VALID,27.9516,VALID,274,VALID,1.40898,
2012-07-22, 10:12:04,VALID,1004.87,VALID,0,VALID,72.3218,VALID,444.631,VALID,28.0686,VALID,299,VALID,1.36133,
2012-07-22, 10:13:04,VALID,1004.85,VALID,0,VALID,72.9474,VALID,440.311,VALID,28.0881,VALID,282,VALID,3.1543,
2012-07-22, 10:14:04,VALID,1004.84,VALID,0,VALID,73.8018,VALID,495.411,VALID,28.1054,VALID,275,VALID,1.43828,
2012-07-22, 10:15:04,VALID,1004.83,VALID,0,VALID,73.7331,VALID,517.582,VALID,28.2245,VALID,284,VALID,1.44062,
2012-07-22, 10:16:04,VALID,1004.78,VALID,0,VALID,72.2226,VALID,497.693,VALID,28.322,VALID,312,VALID,1.78281,
2012-07-22, 10:17:04,VALID,1004.69,VALID,0,VALID,72.1845,VALID,523.369,VALID,28.4194,VALID,298,VALID,1.16055,
2012-07-22, 10:18:04,VALID,1004.72,VALID,0,VALID,71.681,VALID,607.567,VALID,28.5776,VALID,299,VALID,1.90859,
2012-07-22, 10:19:04,VALID,1004.68,VALID,0,VALID,73.4509,VALID,550.185,VALID,28.6534,VALID,235,VALID,0.772656,
2012-07-22, 10:20:04,VALID,1004.66,VALID,0,VALID,72.3523,VALID,491.988,VALID,28.8483,VALID,264,VALID,1.17188,
2012-07-22, 10:21:04,VALID,1004.61,VALID,0,VALID,70.5519,VALID,470.225,VALID,28.9068,VALID,286,VALID,2.61211,
2012-07-22, 10:22:04,VALID,1004.6,VALID,0,VALID,70.5671,VALID,455.309,VALID,28.8678,VALID,306,VALID,1.2125,
2012-07-22, 10:23:04,VALID,1004.61,VALID,0,VALID,70.2544,VALID,472.018,VALID,28.8873,VALID,259,VALID,2.59141,
2012-07-22, 10:24:04,VALID,1004.56,VALID,0,VALID,69.6593,VALID,571.622,VALID,28.7314,VALID,285,VALID,3.65898,
2012-07-22, 10:25:04,VALID,1004.54,VALID,0,VALID,70.7655,VALID,521.086,VALID,28.5732,VALID,285,VALID,2.2418,
2012-07-22, 10:26:04,VALID,1004.57,VALID,0,VALID,71.1241,VALID,548.718,VALID,28.6945,VALID,283,VALID,1.75977,
2012-07-22, 10:27:04,VALID,1004.57,VALID,0,VALID,69.6288,VALID,510.246,VALID,28.6945,VALID,278,VALID,4.01523,
2012-07-22, 10:28:04,VALID,1004.55,VALID,0,VALID,70.9791,VALID,498.019,VALID,28.6361,VALID,301,VALID,2.73516,
2012-07-22, 10:29:04,VALID,1004.54,VALID,0,VALID,71.803,VALID,475.686,VALID,28.5927,VALID,267,VALID,1.13555,
2012-07-22, 10:30:04,VALID,1004.54,VALID,0,VALID,71.3682,VALID,474.708,VALID,28.6512,VALID,290,VALID,2.20859,
2012-07-22, 10:31:04,VALID,1004.58,VALID,0,VALID,70.0102,VALID,496.308,VALID,28.7314,VALID,291,VALID,2.83672,
2012-07-22, 10:32:04,VALID,1004.56,VALID,0,VALID,70.2238,VALID,677.828,VALID,28.5732,VALID,285,VALID,1.6125,
2012-07-22, 10:33:04,VALID,1004.53,VALID,0,VALID,70.857,VALID,391.324,VALID,28.5732,VALID,299,VALID,2.52695,
2012-07-22, 10:34:04,VALID,1004.53,VALID,0,VALID,71.1012,VALID,594.689,VALID,28.6339,VALID,293,VALID,2.26797,
2012-07-22, 10:35:04,VALID,1004.48,VALID,0,VALID,71.0401,VALID,494.759,VALID,28.7509,VALID,184,VALID,1.22109,
2012-07-22, 10:36:04,VALID,1004.47,VALID,0,VALID,72.6269,VALID,485.549,VALID,28.8656,VALID,312,VALID,1.04336,
2012-07-22, 10:37:04,VALID,1004.46,VALID,0,VALID,70.0789,VALID,508.208,VALID,29.0216,VALID,288,VALID,2.76484,
2012-07-22, 10:38:04,VALID,1004.44,VALID,0,VALID,70.3154,VALID,535.188,VALID,29.0996,VALID,284,VALID,1.81055,
2012-07-22, 10:39:04,VALID,1004.41,VALID,0,VALID,69.2321,VALID,420.423,VALID,28.9653,VALID,284,VALID,3.90937,
2012-07-22, 10:40:04,VALID,1004.4,VALID,0,VALID,71.1164,VALID,410.153,VALID,28.7682,VALID,295,VALID,1.8,
2012-07-22, 10:41:04,VALID,1004.36,VALID,0,VALID,71.2614,VALID,433.383,VALID,28.8873,VALID,239,VALID,1.4668,
2012-07-22, 10:42:04,VALID,1004.33,VALID,0,VALID,71.5513,VALID,407.789,VALID,28.8461,VALID,284,VALID,2.09805,
2012-07-22, 10:43:04,VALID,1004.31,VALID,0,VALID,70.468,VALID,407.545,VALID,28.8678,VALID,267,VALID,2.91328,
2012-07-22, 10:44:04,VALID,1004.32,VALID,0,VALID,70.8418,VALID,413.25,VALID,28.7509,VALID,294,VALID,2.68945,
2012-07-22, 10:45:04,VALID,1004.24,VALID,0,VALID,71.8412,VALID,413.984,VALID,28.5537,VALID,288,VALID,1.90664,
2012-07-22, 10:46:04,VALID,1004.28,VALID,0,VALID,72.9016,VALID,417.163,VALID,28.5169,VALID,249,VALID,2.35352,
2012-07-22, 10:47:04,VALID,1004.28,VALID,0,VALID,73.7865,VALID,420.178,VALID,28.5364,VALID,279,VALID,1.62188,
2012-07-22, 10:48:04,VALID,1004.28,VALID,0,VALID,73.4203,VALID,423.928,VALID,28.6317,VALID,262,VALID,1.06758,
2012-07-22, 10:49:04,VALID,1004.3,VALID,0,VALID,71.7878,VALID,435.421,VALID,28.7119,VALID,279,VALID,2.3,
2012-07-22, 10:50:04,VALID,1004.23,VALID,0,VALID,72.0243,VALID,428.085,VALID,28.6339,VALID,331,VALID,3.31172,
2012-07-22, 10:51:04,VALID,1004.25,VALID,0,VALID,74.9614,VALID,419.771,VALID,28.4779,VALID,185,VALID,1.08633,
2012-07-22, 10:52:04,VALID,1004.22,VALID,0,VALID,73.6874,VALID,419.282,VALID,28.4173,VALID,249,VALID,2.55391,
2012-07-22, 10:53:04,VALID,1004.23,VALID,0,VALID,73.5119,VALID,422.053,VALID,28.4173,VALID,263,VALID,2.2832,
2012-07-22, 10:54:04,VALID,1004.27,VALID,0,VALID,74.7935,VALID,427.351,VALID,28.4389,VALID,244,VALID,1.65391,
2012-07-22, 10:55:04,VALID,1004.28,VALID,0,VALID,73.0084,VALID,432.568,VALID,28.5148,VALID,263,VALID,1.93047,
2012-07-22, 10:56:04,VALID,1004.26,VALID,0,VALID,74.4274,VALID,440.148,VALID,28.5732,VALID,241,VALID,1.15,